Lapse_Rate
4.0 4.2 4.6 6.9 8.2 8.6 7.4 5.9 5.5 5.0 4.7 4.9 5.2 5.4 5.2 5.4 5.8 6.5 7.0 7.2 7.7 8.2 8.0 8.3 9.3 8.4 7.8 6.8 6.8 8.2 8.5 7.1 7.7 8.3 8.6 7.8 7.0 6.8 6.5 6.5 6.6 6.5 6.5 6.6 6.7 5.6 5.6
3.8 4.0 5.0 6.8 6.7 6.9 5.7 4.9 4.6 4.3 4.4 5.0 5.4 5.6 5.5 5.7 6.3 6.8 7.5 7.6 7.6 7.5 8.1 7.9 8.7 8.1 6.9 6.4 8.0 7.4 6.4 6.2 6.8 7.5 7.9 8.2 7.4 7.0 6.7 6.5 6.5 6.5 6.5 6.5 6.7 6.7 6.5
3.6 3.8 4.2 4.9 5.7 5.0 4.8 4.3 4.0 4.1 4.6 5.1 5.4 5.9 6.0 6.1 6.6 6.9 7.3 7.5 7.5 8.1 8.5 8.4 8.5 7.5 6.7 7.0 7.4 6.6 5.9 6.8 6.6 6.5 7.1 7.6 8.4 7.2 7.1 6.5 6.6 6.7 6.5 6.5 6.5 6.5 6.5
3.4 3.8 4.0 4.1 4.2 4.1 4.3 4.2 3.9 4.0 4.6 5.0 5.4 5.9 6.0 5.8 6.4 6.9 7.0 7.2 7.9 8.5 8.6 8.4 7.7 6.8 5.9 7.8 8.0 6.8 6.4 6.4 6.1 5.6 6.0 6.4 7.5 7.4 6.9 7.0 6.7 6.5 6.5 6.5 6.5 6.5 6.5
3.3 3.5 3.5 3.5 3.4 3.8 4.1 4.2 4.1 3.9 4.7 5.1 5.4 5.7 5.6 5.4 6.8 6.6 6.3 7.1 7.2 7.8 8.1 8.3 6.1 6.1 6.4 8.0 6.7 7.1 6.9 7.1 5.5 4.7 6.0 7.9 7.2 7.0 6.9 6.5 6.5 6.5 6.5 6.5 6.5 6.5 6.5
3.2 3.3 3.2 3.2 3.2 3.6 3.7 4.0 4.2 4.0 4.8 5.0 5.2 5.0 5.2 5.4 6.8 6.2 5.6 5.2 6.5 6.3 7.1 7.5 7.9 5.7 6.9 7.0 6.7 7.1 6.9 6.4 5.6 5.2 6.1 6.5 6.2 6.5 6.5 6.5 6.5 6.5 6.5 6.5 6.5 6.5 6.5
3.1 3.0 3.0 3.2 3.4 3.5 3.6 3.9 4.2 4.5 4.9 4.9 4.7 4.8 5.1 5.4 7.1 5.7 3.4 1.8 2.6 4.4 4.6 5.8 6.1 6.2 7.2 7.4 7.1 6.7 7.4 6.4 5.5 6.5 6.5 6.3 6.5 6.5 6.5 6.5 6.5 6.5 6.5 6.5 6.5 6.5 6.5
2.9 2.8 2.9 3.0 3.4 3.6 3.8 4.0 4.1 4.6 5.2 5.3 4.9 4.6 4.7 5.4 6.9 5.0 2.3 3.4 6.0 5.9 5.9 5.9 6.8 6.7 7.6 7.2 6.5 7.0 7.6 6.5 6.3 6.5 6.5 6.5 6.5 6.5 6.5 6.5 6.5 6.5 6.5 6.5 6.5 6.5 6.5
2.7 2.7 2.8 3.0 3.3 3.5 3.7 4.2 4.2 4.6 4.9 5.3 5.3 5.2 4.8 4.9 6.2 2.2 3.1 3.8 4.0 5.6 6.1 5.9 6.2 6.4 6.9 6.6 6.1 6.4 6.8 6.7 6.5 6.5 6.5 6.5 6.5 6.5 6.5 6.5 6.5 6.5 6.5 6.5 6.5 6.5 6.5
2.6 2.6 2.7 2.9 2.9 3.3 3.7 4.1 4.3 4.8 4.8 4.6 4.6 5.5 5.1 5.1 3.6 2.7 4.4 3.3 4.6 5.2 6.5 6.5 6.4 6.5 7.1 6.4 6.3 7.1 7.3 6.6 6.6 6.5 6.5 6.5 6.5 6.5 6.5 6.5 6.5 6.5 6.5 6.5 6.5 6.5 6.5
2.4 2.4 2.6 2.7 2.8 3.0 3.4 3.8 4.2 4.6 4.8 4.9 5.1 4.7 5.0 4.7 4.9 3.9 4.4 3.5 4.8 4.3 6.5 6.5 6.3 6.8 7.3 6.5 6.1 6.8 6.9 6.5 6.5 6.5 6.5 6.5 6.5 6.5 6.5 6.5 6.5 6.5 6.5 6.5 6.5 6.5 6.5
2.2 2.3 2.4 2.5 2.6 2.7 3.0 3.5 3.8 4.2 4.3 4.9 5.2 5.3 4.6 1.3 1.3 4.3 2.5 3.9 3.2 6.5 6.5 6.5 6.1 6.5 6.5 6.5 6.4 6.7 6.8 7.3 6.7 6.5 6.5 6.5 6.7 6.5 6.5 6.5 6.5 6.5 6.5 6.5 6.5 6.5 6.5
2.2 2.4 2.3 2.4 2.4 2.4 2.8 3.3 3.7 4.0 4.0 4.0 4.6 5.1 4.3 3.2 2.7 2.0 2.5 2.1 6.5 6.5 6.5 6.5 6.5 6.5 6.5 6.5 6.5 6.5 6.5 6.5 6.5 6.5 6.5 6.5 6.5 6.5 6.5 6.5 6.5 6.5 6.5 6.5 6.5 6.5 6.5
1.8 2.2 2.3 2.4 2.3 2.1 2.4 2.8 3.3 3.5 3.6 3.5 3.4 4.9 3.5 3.7 2.1 2.0 0.9 6.1 6.5 6.5 6.5 6.5 6.5 6.5 6.5 6.5 6.5 6.5 6.5 6.5 6.5 6.5 6.5 6.5 6.5 6.5 6.5 6.5 6.5 6.5 6.5 6.5 6.5 6.5 6.5
1.7 2.0 2.1 2.2 2.1 1.9 2.1 2.4 2.7 2.9 2.9 2.9 2.5 0.6 2.5 3.3 2.0 1.9 2.9 6.5 6.5 6.5 6.5 6.5 6.5 6.5 6.5 6.5 6.5 6.5 6.5 6.5 6.5 6.5 6.5 6.5 6.5 6.5 6.5 6.5 6.5 6.5 6.5 6.5 6.5 6.5 6.5
1.6 1.9 1.9 1.9 1.9 1.8 1.9 2.2 2.3 2.6 2.5 1.8 -1.3 0.3 3.8 2.4 2.9 0.9 5.9 6.5 6.5 6.6 6.6 6.5 6.5 6.5 6.5 6.5 6.5 6.5 6.5 6.5 6.5 6.5 6.5 6.5 6.5 6.5 6.5 6.5 6.5 6.5 6.5 6.5 6.5 6.5 6.5
1.6 1.8 1.8 1.8 1.8 1.9 1.9 2.0 2.2 2.4 2.3 1.4 -1.8 2.1 3.6 1.1 1.7 3.6 6.5 6.5 6.5 6.6 6.4 6.5 6.5 6.5 6.5 6.5 6.5 6.5 6.5 6.5 6.5 6.5 6.4 6.5 6.5 6.5 6.5 6.5 6.5 6.5 6.5 6.5 6.5 6.5 6.5
1.5 1.8 1.8 1.9 1.9 1.9 1.8 1.9 2.0 2.1 1.7 -0.4 -1.2 5.6 1.8 1.0 4.8 5.2 6.5 6.5 7.1 6.5 6.1 6.5 6.5 6.5 6.5 6.5 6.5 6.5 6.5 6.5 5.8 6.4 6.5 6.5 6.5 6.5 6.5 6.5 6.5 6.5 6.5 6.5 6.5 6.5 6.5
1.5 1.7 1.8 2.0 2.0 2.0 2.1 2.2 2.1 2.3 1.3 -1.4 0.7 1.5 1.7 1.5 6.5 6.5 6.3 6.5 6.6 6.5 6.5 6.5 6.5 6.5 6.5 6.5 6.5 6.5 6.5 5.8 5.8 6.5 6.5 6.5 6.5 6.5 6.5 6.5 6.5 6.5 6.5 6.5 6.5 6.5 6.5
1.5 1.7 1.9 2.0 2.1 2.1 2.1 2.1 2.2 2.2 1.6 -2.1 0.6 6.5 2.7 1.3 4.5 6.4 6.5 6.5 6.5 6.6 6.6 6.7 6.5 6.4 6.5 6.5 6.5 6.5 6.5 6.5 6.5 6.3 7.3 6.2 6.5 6.5 6.5 6.5 6.5 6.5 6.5 6.5 6.5 6.5 6.5
1.7 1.8 2.1 2.1 2.1 2.2 1.9 2.1 2.3 2.1 1.3 -1.5 -0.7 4.4 3.3 6.5 6.0 6.2 6.4 6.5 6.5 6.5 6.3 6.0 6.5 6.5 6.5 6.5 6.5 6.5 6.5 6.5 6.4 6.8 6.0 6.5 6.5 6.5 6.5 6.5 6.5 6.5 6.5 6.5 6.5 6.5 6.5
1.7 1.9 2.0 2.2 2.2 2.1 2.1 2.2 2.3 2.0 1.1 -2.2 0.9 1.2 0.5 2.0 4.7 6.4 6.5 6.5 6.5 6.5 6.5 6.5 6.5 6.5 6.5 6.5 6.5 6.5 6.5 6.5 6.5 6.4 6.5 6.5 6.5 6.5 6.5 6.5 6.5 6.5 6.5 6.5 6.5 6.5 6.5
1.7 1.9 2.0 2.3 2.1 2.1 2.2 2.3 2.2 1.9 0.8 -0.9 -0.8 0.5 1.1 4.2 5.5 6.4 6.5 6.5 6.5 6.5 6.2 5.9 5.7 6.4 6.5 6.3 3.8 5.1 5.2 6.4 6.2 6.5 6.5 6.5 6.5 6.5 6.5 6.5 6.5 6.5 6.5 6.5 6.5 6.5 6.5
1.7 2.1 2.0 2.3 2.3 2.1 2.3 2.5 2.6 2.1 0.8 -0.8 -0.6 -0.6 -0.4 6.5 5.6 6.5 5.5 6.3 6.5 6.3 6.3 3.9 1.9 5.2 4.8 4.3 3.9 4.4 5.3 6.8 6.7 6.4 6.4 6.5 6.5 6.5 6.5 6.5 6.5 6.5 6.5 6.5 6.5 6.5 6.5
1.6 2.1 2.2 2.4 2.5 2.3 2.3 2.5 3.0 2.7 1.8 -0.8 -0.6 -0.1 -2.3 6.5 5.3 5.1 5.5 6.3 2.8 1.8 4.9 5.5 4.1 3.9 2.6 4.1 6.5 6.5 6.5 6.5 6.5 6.5 6.5 5.5 6.5 6.5 6.5 6.5 6.5 6.5 6.5 6.5 6.5 6.5 6.5
1.4 2.0 2.2 2.4 2.7 2.6 2.9 2.9 2.8 3.2 2.9 1.1 0.5 0.3 -1.2 0.2 5.2 2.5 3.0 4.1 6.3 6.5 5.9 4.8 4.2 2.6 2.5 5.4 6.5 6.5 6.5 6.5 6.5 6.5 6.4 6.5 6.5 6.5 6.5 6.5 6.5 6.5 6.5 6.6 6.6 6.5 6.6
1.5 1.9 2.0 2.4 2.6 2.8 3.4 3.3 3.8 4.0 3.0 3.3 2.7 2.7 0.7 -1.4 -1.0 2.1 2.7 4.8 1.2 3.9 6.5 3.0 2.6 2.5 2.1 6.5 6.5 6.5 6.5 6.5 6.5 6.5 6.5 6.5 6.5 6.5 6.5 6.5 6.5 6.5 4.9 6.1 6.5 6.5 6.6
1.9 2.0 2.0 2.3 2.8 3.2 3.9 4.0 4.1 5.6 8.0 5.8 4.2 3.8 3.0 -2.3 0.5 2.0 3.7 0.5 1.7 0.9 6.5 0.8 4.0 3.2 5.2 6.5 6.5 6.5 6.5 6.5 6.5 6.5 6.5 6.5 6.5 6.5 6.5 6.5 6.5 3.1 5.8 6.5 5.1 3.1 5.5
1.7 2.0 2.1 2.6 3.0 3.4 3.8 4.0 4.4 6.4 7.1 6.5 5.8 4.4 4.1 3.9 1.6 2.0 3.1 4.1 4.1 2.7 1.5 -3.2 3.2 1.1 3.2 6.5 6.5 6.5 6.5 6.5 6.5 6.5 6.5 6.5 6.5 6.5 6.5 6.5 4.0 1.6 2.7 0.1 -0.8 1.1 2.6
Wind_Speed
22 22 23 23 23 24 24 24 24 25 26 26 25 26 27 27 26 25 26 27 26 22 19 15 16 2 3 3 4 9 21 17 9 9 8 8 12 18 22 12 23 27 22 13 24 12 5
21 23 23 23 24 25 25 25 26 27 28 27 26 27 27 26 25 26 25 26 26 21 15 19 8 6 2 6 9 16 11 12 8 4 8 8 8 7 17 25 22 10 19 22 16 19 13
22 22 23 24 24 25 26 27 28 29 28 26 27 27 27 26 23 25 25 25 24 17 9 17 6 2 3 5 14 21 7 3 5 5 8 14 10 7 6 7 13 20 28 10 21 16 11
22 22 23 23 24 25 27 28 29 29 27 27 27 28 28 26 22 23 24 24 19 17 4 24 11 3 3 6 26 16 9 9 7 10 14 13 7 8 4 5 7 23 18 23 19 19 13
22 23 23 24 25 26 27 28 29 29 27 28 28 29 29 26 22 22 22 20 11 22 15 11 15 3 4 20 22 6 5 16 19 10 4 8 4 7 3 4 6 9 19 27 21 15 15
22 23 23 24 25 27 28 28 29 28 26 27 29 30 29 25 19 21 19 11 6 10 13 4 12 5 9 19 13 5 10 22 7 7 6 2 4 8 8 9 13 7 13 20 24 18 24
21 22 23 24 25 27 28 29 28 27 26 28 30 30 29 25 18 17 9 4 6 6 8 6 8 4 12 21 6 11 11 23 7 3 3 4 4 12 11 16 10 14 15 11 16 15 16
21 22 23 24 25 26 27 29 28 26 25 28 29 31 31 25 17 17 4 6 2 4 5 6 12 7 17 11 6 19 18 12 6 8 6 4 4 8 13 7 10 12 17 16 9 15 24
21 22 23 24 25 26 27 28 28 26 26 27 26 29 31 27 8 6 5 3 8 4 1 6 8 9 14 10 6 17 16 15 4 7 9 4 6 13 10 9 5 7 13 8 8 6 19
21 21 22 23 24 26 27 27 27 25 25 26 30 29 28 25 7 4 2 8 4 3 4 13 12 7 16 17 7 12 12 4 6 8 7 4 9 14 13 5 3 4 10 11 4 2 3
20 21 22 23 24 26 26 27 27 25 25 22 24 31 30 13 1 3 6 12 3 4 6 19 9 6 17 11 10 16 13 6 4 14 4 6 10 13 14 5 1 2 6 10 5 3 5
20 21 22 23 24 25 26 27 27 26 25 21 19 24 25 6 2 3 14 1 3 6 4 10 7 17 22 15 9 15 13 15 1 5 5 4 8 5 6 15 4 1 4 3 5 3 6
20 21 22 23 24 26 26 27 27 27 26 21 13 20 16 4 6 22 5 4 6 6 7 12 11 18 16 16 12 15 17 23 15 9 10 7 3 8 16 7 10 11 4 2 3 5 4
19 20 22 23 24 26 27 28 29 28 28 21 10 25 17 10 24 15 5 6 8 6 4 7 10 15 6 14 10 13 13 19 7 10 5 7 8 14 13 4 8 4 1 1 6 5 4
18 19 21 23 24 25 27 29 30 30 28 20 6 5 5 17 23 7 6 7 2 4 9 9 14 6 6 13 8 10 13 16 5 16 6 6 5 4 14 5 9 6 2 3 2 1 4
17 19 20 22 24 25 27 29 31 31 28 14 3 3 7 24 17 5 6 8 1 2 5 4 6 5 5 9 12 12 12 6 17 15 11 4 5 5 12 8 9 5 6 2 2 1 2
16 18 20 22 24 25 27 29 31 31 27 6 4 4 4 23 6 6 4 3 2 3 5 5 4 5 5 5 4 6 7 8 14 18 9 3 2 6 6 15 12 10 4 4 2 1 3
15 17 18 20 23 26 28 29 31 31 25 9 3 3 5 7 5 3 3 3 5 4 4 3 2 3 3 5 4 4 5 4 10 13 10 3 1 4 3 3 9 12 9 2 1 3 4
14 15 17 19 22 24 26 27 29 29 17 2 3 1 4 5 4 4 4 4 1 5 4 5 3 3 2 3 4 2 5 9 9 12 13 7 4 6 8 3 16 9 21 10 4 1 6
13 14 16 18 21 23 26 28 29 29 13 4 3 3 4 4 2 3 3 4 5 3 1 3 3 4 4 3 1 5 5 6 13 8 21 4 3 3 1 2 6 14 24 21 6 4 3
12 13 14 17 20 22 25 28 30 30 12 4 4 0 2 4 4 2 1 3 5 6 2 5 3 4 1 3 6 4 4 7 6 12 9 5 4 4 3 6 2 17 22 22 19 14 6
10 11 13 15 17 20 23 27 29 31 9 4 3 3 3 0 2 2 5 1 3 5 2 4 2 9 4 4 6 6 4 0 4 9 6 7 2 4 3 8 6 7 20 17 14 13 8
8 10 11 12 15 17 20 25 27 29 11 3 1 2 4 3 1 3 2 4 4 1 3 4 4 1 2 6 7 9 8 9 5 6 5 8 3 4 4 8 5 4 12 11 5 11 6
6 7 8 10 12 14 17 21 24 22 14 3 1 3 3 3 2 2 2 2 4 3 4 4 3 3 5 7 9 2 3 8 6 5 4 5 3 2 3 5 6 4 5 6 4 7 11
4 5 5 6 9 11 13 17 20 18 16 4 1 2 3 2 1 2 3 3 5 4 2 3 3 5 6 5 4 6 4 4 2 2 1 3 3 3 3 1 3 6 5 4 4 4 8
3 4 4 4 5 8 10 12 14 15 9 5 2 2 3 4 4 3 2 1 1 3 6 4 3 3 5 2 4 3 2 3 6 10 4 3 4 4 4 5 1 6 4 4 0 2 8
5 4 2 2 2 4 6 8 10 9 4 5 1 3 3 2 3 4 3 4 4 2 3 4 6 6 3 3 3 2 3 2 3 3 5 5 4 3 2 1 6 5 5 1 4 4 6
7 7 5 4 3 3 6 8 10 10 6 2 1 3 3 2 4 6 5 4 3 2 2 3 3 3 3 4 2 1 1 1 2 3 2 2 2 2 2 3 3 3 2 5 4 3 3
9 10 8 6 5 5 7 9 11 12 3 4 1 2 4 2 4 3 4 3 6 8 4 2 3 3 3 3 1 2 2 1 1 3 1 2 5 2 7 5 3 3 4 3 4 4 3
Wind_Direction
31 27 23 17 14 11 10 8 6 4 3 1 1 359 356 355 353 347 347 349 347 352 347 340 337 208 312 1 290 296 326 326 326 318 330 297 253 227 237 228 227 238 233 232 230 211 192
29 25 21 17 13 11 9 7 5 4 3 2 3 359 357 355 353 346 348 349 351 355 347 354 26 129 62 37 321 317 319 322 324 329 295 289 258 296 257 246 227 238 239 249 240 226 214
28 25 21 16 13 11 9 7 5 3 2 3 3 0 357 356 352 345 348 350 359 360 31 38 45 10 72 22 341 327 311 266 290 287 281 287 284 264 330 268 275 232 249 247 235 217 213
26 24 21 17 14 11 9 7 3 2 2 2 2 359 359 358 353 344 345 349 3 33 47 34 22 350 274 356 343 9 331 310 279 269 262 259 236 269 247 274 300 229 232 227 230 221 221
24 23 20 17 14 11 9 7 3 2 1 2 358 358 359 359 352 346 336 339 356 29 32 42 17 12 6 333 347 321 352 322 303 294 252 273 182 231 198 240 267 236 213 229 222 199 214
25 22 20 16 14 11 8 6 4 2 359 356 355 356 358 358 351 350 332 344 359 33 3 19 21 33 338 338 327 311 323 341 280 304 306 163 183 240 226 219 231 235 222 222 221 199 201
24 22 19 16 14 12 7 5 4 4 1 357 356 355 357 358 8 7 353 20 20 1 28 88 333 316 332 328 312 334 354 336 358 352 319 328 234 231 250 240 265 247 261 251 216 187 190
23 21 19 16 14 11 8 6 4 5 5 3 359 358 356 358 15 14 16 70 124 241 322 9 4 345 338 335 316 341 351 359 335 325 333 351 254 346 318 269 220 237 236 254 288 195 202
22 20 18 16 14 11 9 8 6 4 7 7 7 4 356 354 9 38 59 35 303 141 336 344 343 346 347 333 323 337 345 330 297 336 328 263 280 328 312 301 232 259 209 204 258 245 219
21 19 17 15 14 12 9 8 7 4 1 359 6 9 3 349 40 355 26 331 77 58 60 354 347 347 343 334 345 336 330 311 349 324 319 321 325 324 320 263 174 180 191 162 177 36 199
20 18 16 14 13 12 8 7 6 4 358 353 357 3 7 25 255 30 292 313 93 58 36 332 323 291 333 28 287 338 323 347 338 328 321 325 324 337 344 358 340 214 203 204 153 117 26
19 17 15 13 12 10 8 5 4 1 357 353 352 9 6 11 9 285 325 264 63 41 312 330 322 339 341 356 346 327 356 358 135 328 336 292 331 10 314 300 293 27 357 114 107 90 253
17 15 15 11 10 8 6 5 3 0 355 352 356 18 21 353 332 319 329 36 46 60 325 332 327 335 328 350 342 356 354 12 29 345 1 319 5 0 358 352 7 9 53 342 150 190 215
19 13 14 10 9 7 4 4 2 0 355 349 346 23 5 19 350 358 40 55 65 324 323 305 320 323 330 1 333 342 352 15 21 7 314 345 1 1 343 354 317 286 25 217 172 158 168
20 14 12 10 7 6 3 2 0 358 356 349 358 348 18 342 351 25 67 51 105 323 317 314 323 347 320 348 350 357 356 10 351 3 1 339 323 330 5 17 16 335 17 340 52 149 115
21 16 13 9 6 6 5 3 0 356 356 358 65 31 10 343 2 45 56 90 56 334 317 319 350 16 324 323 351 6 352 328 352 359 347 308 309 352 348 5 25 22 326 51 347 352 101
17 17 13 9 5 5 5 4 1 356 355 12 52 43 290 349 38 43 67 66 325 320 13 5 326 303 296 303 321 317 294 299 7 340 337 297 13 306 349 29 2 9 9 330 303 222 186
16 17 13 10 6 6 5 4 2 360 354 40 78 39 324 6 51 23 43 355 328 312 6 340 10 279 289 305 308 315 318 227 346 331 348 287 85 303 240 210 25 37 357 301 295 0 25
16 17 14 11 9 8 4 4 6 4 12 78 73 291 334 46 60 12 331 327 321 343 347 352 319 24 326 291 350 279 320 289 342 352 2 319 360 341 352 350 15 15 5 357 227 95 20
12 14 14 13 12 8 6 4 6 6 14 77 79 18 344 50 79 92 358 337 327 5 286 342 277 357 326 326 203 296 308 303 337 342 1 38 38 86 98 336 353 2 7 12 28 51 41
8 12 14 15 16 11 10 7 6 7 16 86 30 78 187 346 11 54 6 334 323 345 338 356 334 16 208 311 323 314 317 309 316 353 5 62 39 4 276 316 300 23 13 14 26 20 49
4 8 16 17 20 15 14 12 10 7 21 79 98 108 1 144 301 13 2 303 307 311 266 317 183 322 150 179 180 286 337 176 255 328 13 1 334 342 295 340 299 24 15 13 16 3 21
1 4 15 18 24 19 18 17 18 13 30 84 353 40 102 309 6 66 242 256 273 1 253 230 246 360 303 235 207 241 223 253 278 318 316 356 354 23 302 348 351 18 4 356 9 19 332
359 354 12 20 24 24 22 21 25 28 46 103 81 94 83 272 124 223 203 232 277 292 222 276 120 115 251 316 284 197 203 238 245 266 243 306 63 70 295 359 41 274 331 323 324 37 11
338 336 357 22 25 28 27 26 30 36 46 75 89 98 111 275 242 270 236 253 319 304 263 247 262 227 323 326 18 7 352 18 295 191 225 148 116 27 73 58 287 346 350 349 5 340 2
293 306 333 10 27 31 28 25 27 33 45 79 65 108 104 110 256 159 142 171 267 325 325 254 307 330 18 57 54 63 328 278 312 333 140 95 82 101 27 97 169 241 280 336 230 327 4
266 267 288 301 347 14 4 3 0 6 58 115 130 121 95 105 246 142 187 187 141 137 243 308 334 350 33 21 56 38 298 162 326 309 331 338 360 89 51 177 291 252 277 290 62 279 346
254 247 246 262 291 329 339 338 334 339 341 134 173 157 111 166 269 198 183 140 131 116 138 268 31 343 21 51 79 270 192 286 330 225 219 195 80 293 78 48 330 195 325 115 220 298 287
243 248 245 255 278 313 322 324 325 333 22 167 261 159 138 186 244 251 246 208 183 184 144 343 176 165 184 75 29 86 284 353 189 286 328 322 184 216 174 223 238 254 191 232 173 198 267